Location: Banksville Park
(38.5557°N, 75.1182°W)
Time: 18:35:17
(UTC+00:00)

SAR-Lupe-1 - Pass Details

Date: 21 January 2021
Orbit: 482 x 484 km, 98.2° (Epoch: 02 March)

Event Time Altitude Azimuth Distance (km) Brightness Sun altitude
Rises 09:57:47 0° 138° (SE) 2,537 8.4 -26.4°
Reaches altitude 10° 10:00:07 10° 124° (SE) 1,661 7.5 -26.0°
Maximum altitude 10:03:00 23° 70° (ENE) 1,061 6.4 -25.4°
Enters shadow 10:05:41 11° 18° (NNE) 1,605 6.8 -24.9°
